<?xml version="1.0" encoding="UTF-8" standalone="no" ?>
<gpx xmlns="http://www.topografix.com/GPX/1/1" xmlns:xsi="http://www.w3.org/2001/XMLSchema-instance" xsi:schemaLocation="http://www.topografix.com/GPX/1/1 http://www.topografix.com/GPX/1/1/gpx.xsd" version="1.1" creator="VisuGPX - https://www.visugpx.com">
  <metadata>
    <name>Tréminis Chichilianne MAJ</name>
  </metadata>
  <trk>
    <name><![CDATA[Cordeac CroixdelaPigne a verifier]]></name>
    <trkseg>
      <trkpt lat="44.82779" lon="5.83672">
        <ele>910</ele>
        <time>2004-07-26T16:50:38Z</time>
      </trkpt>
      <trkpt lat="44.82711" lon="5.83699">
        <ele>912</ele>
        <time>2004-07-26T16:50:38Z</time>
      </trkpt>
      <trkpt lat="44.82615" lon="5.83737">
        <ele>919</ele>
        <time>2004-07-26T16:50:38Z</time>
      </trkpt>
      <trkpt lat="44.82559" lon="5.83791">
        <ele>927</ele>
        <time>2004-07-26T16:50:38Z</time>
      </trkpt>
      <trkpt lat="44.82432" lon="5.83827">
        <ele>943</ele>
        <time>2004-07-26T16:50:38Z</time>
      </trkpt>
      <trkpt lat="44.82383" lon="5.83824">
        <ele>950</ele>
        <time>2004-07-26T16:50:38Z</time>
      </trkpt>
      <trkpt lat="44.82378" lon="5.83969">
        <ele>946</ele>
        <time>2004-07-26T16:50:38Z</time>
      </trkpt>
      <trkpt lat="44.82372" lon="5.84013">
        <ele>948</ele>
        <time>2004-07-26T16:50:38Z</time>
      </trkpt>
      <trkpt lat="44.82453" lon="5.84183">
        <ele>947</ele>
        <time>2004-07-26T16:50:38Z</time>
      </trkpt>
      <trkpt lat="44.82503" lon="5.84293">
        <ele>945</ele>
        <time>2004-07-26T16:50:38Z</time>
      </trkpt>
      <trkpt lat="44.82501" lon="5.84363">
        <ele>949</ele>
        <time>2004-07-26T16:50:38Z</time>
      </trkpt>
      <trkpt lat="44.82383" lon="5.844">
        <ele>972</ele>
        <time>2004-07-26T16:50:38Z</time>
      </trkpt>
      <trkpt lat="44.8231" lon="5.84427">
        <ele>984</ele>
        <time>2004-07-26T16:50:38Z</time>
      </trkpt>
      <trkpt lat="44.82197" lon="5.84445">
        <ele>1013</ele>
        <time>2004-07-26T16:50:38Z</time>
      </trkpt>
      <trkpt lat="44.82152" lon="5.84575">
        <ele>1029</ele>
        <time>2004-07-26T16:50:38Z</time>
      </trkpt>
      <trkpt lat="44.82046" lon="5.84657">
        <ele>1053</ele>
        <time>2004-07-26T16:50:38Z</time>
      </trkpt>
      <trkpt lat="44.82017" lon="5.84718">
        <ele>1051</ele>
        <time>2004-07-26T16:50:38Z</time>
      </trkpt>
      <trkpt lat="44.81919" lon="5.84807">
        <ele>1055</ele>
        <time>2004-07-26T16:50:38Z</time>
      </trkpt>
      <trkpt lat="44.819" lon="5.84863">
        <ele>1053</ele>
        <time>2004-07-26T16:50:38Z</time>
      </trkpt>
      <trkpt lat="44.8191" lon="5.84952">
        <ele>1050</ele>
        <time>2004-07-26T16:50:38Z</time>
      </trkpt>
      <trkpt lat="44.81822" lon="5.85041">
        <ele>1069</ele>
        <time>2004-07-26T16:50:38Z</time>
      </trkpt>
      <trkpt lat="44.81788" lon="5.85109">
        <ele>1074</ele>
        <time>2004-07-26T16:50:38Z</time>
      </trkpt>
      <trkpt lat="44.81752" lon="5.85107">
        <ele>1086</ele>
        <time>2004-07-26T16:50:38Z</time>
      </trkpt>
      <trkpt lat="44.81713" lon="5.85205">
        <ele>1101</ele>
        <time>2004-07-26T16:50:38Z</time>
      </trkpt>
      <trkpt lat="44.81726" lon="5.85364">
        <ele>1083</ele>
        <time>2004-07-26T16:50:38Z</time>
      </trkpt>
      <trkpt lat="44.81595" lon="5.85514">
        <ele>1058</ele>
        <time>2004-07-26T16:50:38Z</time>
      </trkpt>
      <trkpt lat="44.81525" lon="5.85592">
        <ele>1046</ele>
        <time>2004-07-26T16:50:38Z</time>
      </trkpt>
      <trkpt lat="44.81404" lon="5.85572">
        <ele>1065</ele>
        <time>2004-07-26T16:50:38Z</time>
      </trkpt>
      <trkpt lat="44.81305" lon="5.85578">
        <ele>1066</ele>
        <time>2004-07-26T16:50:38Z</time>
      </trkpt>
      <trkpt lat="44.81242" lon="5.85593">
        <ele>1078</ele>
        <time>2004-07-26T16:50:38Z</time>
      </trkpt>
      <trkpt lat="44.8116" lon="5.85759">
        <ele>1076</ele>
        <time>2004-07-26T16:50:38Z</time>
      </trkpt>
      <trkpt lat="44.81095" lon="5.85811">
        <ele>1103</ele>
        <time>2004-07-26T16:50:38Z</time>
      </trkpt>
      <trkpt lat="44.81057" lon="5.85872">
        <ele>1104</ele>
        <time>2004-07-26T16:50:38Z</time>
      </trkpt>
      <trkpt lat="44.80872" lon="5.85601">
        <ele>1099</ele>
        <time>2004-07-26T16:50:38Z</time>
      </trkpt>
      <trkpt lat="44.8076" lon="5.85468">
        <ele>1082</ele>
        <time>2004-07-26T16:50:38Z</time>
      </trkpt>
      <trkpt lat="44.80697" lon="5.85458">
        <ele>1071</ele>
        <time>2004-07-26T16:50:38Z</time>
      </trkpt>
      <trkpt lat="44.80627" lon="5.85384">
        <ele>1075</ele>
        <time>2004-07-26T16:50:38Z</time>
      </trkpt>
      <trkpt lat="44.80547" lon="5.85366">
        <ele>1066</ele>
        <time>2004-07-26T16:50:38Z</time>
      </trkpt>
      <trkpt lat="44.80497" lon="5.85363">
        <ele>1055</ele>
        <time>2004-07-26T16:50:38Z</time>
      </trkpt>
      <trkpt lat="44.80537" lon="5.8553">
        <ele>1041</ele>
        <time>2004-07-26T16:50:38Z</time>
      </trkpt>
      <trkpt lat="44.80564" lon="5.85677">
        <ele>1011</ele>
        <time>2004-07-26T16:50:38Z</time>
      </trkpt>
      <trkpt lat="44.80677" lon="5.85804">
        <ele>1011</ele>
        <time>2004-07-26T16:50:38Z</time>
      </trkpt>
      <trkpt lat="44.80696" lon="5.85894">
        <ele>1008</ele>
        <time>2004-07-26T16:50:38Z</time>
      </trkpt>
      <trkpt lat="44.80697" lon="5.86001">
        <ele>986</ele>
        <time>2004-07-26T16:50:38Z</time>
      </trkpt>
      <trkpt lat="44.80745" lon="5.86061">
        <ele>973</ele>
        <time>2004-07-26T16:50:38Z</time>
      </trkpt>
      <trkpt lat="44.80777" lon="5.86051">
        <ele>982</ele>
        <time>2004-07-26T16:50:38Z</time>
      </trkpt>
      <trkpt lat="44.80859" lon="5.86163">
        <ele>973</ele>
        <time>2004-07-26T16:50:38Z</time>
      </trkpt>
      <trkpt lat="44.80918" lon="5.86148">
        <ele>988</ele>
        <time>2004-07-26T16:50:38Z</time>
      </trkpt>
      <trkpt lat="44.80949" lon="5.86175">
        <ele>987</ele>
        <time>2004-07-26T16:50:38Z</time>
      </trkpt>
      <trkpt lat="44.80918" lon="5.86148">
        <ele>988</ele>
        <time>2004-07-26T16:50:38Z</time>
      </trkpt>
      <trkpt lat="44.80859" lon="5.86163">
        <ele>973</ele>
        <time>2004-07-26T16:50:38Z</time>
      </trkpt>
      <trkpt lat="44.80758" lon="5.86644">
        <ele>966</ele>
        <time>2004-07-26T16:50:38Z</time>
      </trkpt>
      <trkpt lat="44.80831" lon="5.86623">
        <ele>963</ele>
        <time>2004-07-26T16:50:38Z</time>
      </trkpt>
      <trkpt lat="44.80898" lon="5.8664">
        <ele>958</ele>
        <time>2004-07-26T16:50:38Z</time>
      </trkpt>
      <trkpt lat="44.8095" lon="5.86681">
        <ele>950</ele>
        <time>2004-07-26T16:50:38Z</time>
      </trkpt>
      <trkpt lat="44.81037" lon="5.86649">
        <ele>947</ele>
        <time>2004-07-26T16:50:38Z</time>
      </trkpt>
      <trkpt lat="44.81101" lon="5.86615">
        <ele>940</ele>
        <time>2004-07-26T16:50:38Z</time>
      </trkpt>
      <trkpt lat="44.81173" lon="5.86619">
        <ele>934</ele>
        <time>2004-07-26T16:50:38Z</time>
      </trkpt>
      <trkpt lat="44.81225" lon="5.86667">
        <ele>934</ele>
        <time>2004-07-26T16:50:38Z</time>
      </trkpt>
      <trkpt lat="44.81361" lon="5.86663">
        <ele>929</ele>
        <time>2004-07-26T16:50:38Z</time>
      </trkpt>
      <trkpt lat="44.81443" lon="5.8663">
        <ele>929</ele>
        <time>2004-07-26T16:50:38Z</time>
      </trkpt>
      <trkpt lat="44.81348" lon="5.86909">
        <ele>919</ele>
        <time>2004-07-26T16:50:38Z</time>
      </trkpt>
      <trkpt lat="44.81276" lon="5.87069">
        <ele>906</ele>
        <time>2004-07-26T16:50:38Z</time>
      </trkpt>
      <trkpt lat="44.81304" lon="5.87153">
        <ele>900</ele>
        <time>2004-07-26T16:50:38Z</time>
      </trkpt>
      <trkpt lat="44.81524" lon="5.87337">
        <ele>897</ele>
        <time>2004-07-26T16:50:38Z</time>
      </trkpt>
      <trkpt lat="44.816" lon="5.87494">
        <ele>883</ele>
        <time>2004-07-26T16:50:38Z</time>
      </trkpt>
      <trkpt lat="44.81664" lon="5.8758">
        <ele>868</ele>
        <time>2004-07-26T16:50:38Z</time>
      </trkpt>
      <trkpt lat="44.81286" lon="5.87588">
        <ele>848</ele>
        <time>2004-07-26T16:50:38Z</time>
      </trkpt>
      <trkpt lat="44.81284" lon="5.87657">
        <ele>859</ele>
        <time>2004-07-26T16:50:38Z</time>
      </trkpt>
      <trkpt lat="44.81286" lon="5.87733">
        <ele>867</ele>
        <time>2004-07-26T16:50:38Z</time>
      </trkpt>
      <trkpt lat="44.81221" lon="5.87932">
        <ele>890</ele>
        <time>2004-07-26T16:50:38Z</time>
      </trkpt>
      <trkpt lat="44.8125" lon="5.88003">
        <ele>892</ele>
        <time>2004-07-26T16:50:38Z</time>
      </trkpt>
      <trkpt lat="44.8128" lon="5.88049">
        <ele>891</ele>
        <time>2004-07-26T16:50:38Z</time>
      </trkpt>
      <trkpt lat="44.81216" lon="5.88096">
        <ele>902</ele>
        <time>2004-07-26T16:50:38Z</time>
      </trkpt>
      <trkpt lat="44.81226" lon="5.88198">
        <ele>900</ele>
        <time>2004-07-26T16:50:38Z</time>
      </trkpt>
    </trkseg>
  </trk>
</gpx>